SCP
0 0 0 0 0 0 0 0 0 0 0 0 0 0 0 0 0 0 0 0 0 0 0 0 0 0 0 0 0 0 0 0 0 0 0 0 0 0 0 0 0 0 0 0
0 0 0 0 0 0 0 0 0 0 0 0 0 0 0 0 0 0 0 0 0 0 0 0 0 0 0 0 0 0 0 0 0 0 0 0 0 0 0 0 0 0 0 0
0 0 0 0 0 0 0 0 0 0 0 0 0 0 0 0 0 0 0 0 0 0 0 0 0 0 0 0 0 0 0 0 0 0 0 0 0 0 0 0 0 0 0 0
0 0 0 0 0 0 0 0 0 0 0 0 0 0 0 0 0 0 0 0 0 0 0 0 -0 -0 0 0 0 0 -0 -0 0 0 0 0 0 0 0 0 0 0 0 0
0 0 0 0 0 0 0 0 0 0 0 0 0 0 0 0 0 0 0 0 0 0 -0 -0 -0 -0 -0 0 1 0 -0 -0 0 0 0 0 0 0 0 0 0 0 0 0
0 0 0 0 0 0 0 0 0 0 0 0 0 0 0 0 0 0 0 0 0 0 0 0 0 0 -0 0 0 0 0 -0 0 0 0 0 0 0 0 0 0 0 0 0
0 0 0 0 0 0 0 0 0 0 0 0 0 0 0 0 0 0 0 0 0 0 0 0 0 0 0 -0 0 0 0 0 0 0 0 0 0 0 0 0 0 0 0 0
0 0 0 0 0 0 0 0 0 0 0 0 0 0 0 0 0 0 0 0 0 0 0 0 0 0 0 -0 0 0 0 0 0 0 0 0 0 0 0 0 0 0 0 0
0 0 0 0 0 0 0 0 0 0 0 0 0 0 0 0 0 0 0 0 0 0 0 0 0 0 0 -0 0 0 0 0 0 0 0 0 0 0 0 0 0 0 0 0
0 0 0 0 0 0 0 0 0 0 0 0 0 0 0 0 0 0 0 0 0 0 0 0 0 0 0 -0 -0 0 0 0 0 0 0 0 0 0 0 0 0 0 0 0
0 0 0 0 0 0 0 0 0 0 0 0 0 0 0 0 0 0 0 0 0 0 0 -0 -0 -0 -0 -0 -0 0 0 0 0 0 0 0 0 0 0 0 0 0 0 0
0 0 0 0 0 0 0 0 0 0 0 0 0 0 0 0 0 0 0 0 0 0 0 -0 -0 -0 -0 -0 0 0 -0 0 0 0 0 0 0 0 0 0 0 0 0 0
0 0 0 0 0 0 0 0 0 0 0 0 0 0 0 0 0 0 0 0 0 -0 -0 -0 0 -0 -0 -0 0 -0 0 0 0 0 0 -0 0 0 0 0 0 0 0 0
0 0 0 0 0 0 0 0 0 0 0 0 0 0 0 0 0 0 0 0 0 0 0 0 -0 -0 -0 0 -0 -0 -0 -0 0 0 0 0 0 0 0 0 0 0 0 0
0 0 0 0 0 0 0 0 0 0 0 0 0 0 0 0 0 0 0 0 0 0 0 -0 -0 -0 -0 -0 -0 -0 0 0 0 0 0 0 0 0 0 0 0 0 0 0
0 0 0 0 0 0 0 0 0 0 0 0 0 0 0 0 0 0 0 0 0 -0 -0 -0 -0 -0 0 -0 -0 -0 -0 -0 0 0 0 0 0 0 0 0 0 0 0 0
0 0 0 0 0 0 0 0 0 0 0 0 0 0 0 0 0 0 0 0 0 -0 -0 -0 -0 0 0 -0 -0 0 0 0 0 0 0 0 0 0 0 0 0 0 0 -0
0 0 0 0 0 0 0 0 0 0 0 0 0 0 0 -0 -0 0 0 0 0 -0 -0 -0 -0 0 0 0 -0 -0 -0 -0 0 0 0 0 0 0 0 0 0 0 0 0
0 0 0 0 0 0 0 0 0 0 0 0 0 0 0 0 -0 0 0 0 0 0 0 0 0 0 0 -0 -0 -0 -0 -0 0 0 0 0 0 0 0 0 0 0 0 0
0 0 0 0 0 0 0 0 0 0 0 0 0 0 0 0 0 0 0 0 0 0 0 0 0 0 0 -0 -0 -0 -0 -0 -0 0 0 0 0 0 0 0 0 0 0 0
0 0 0 0 0 0 0 0 0 0 0 0 0 0 0 0 0 0 0 0 0 0 0 0 0 0 0 -0 -0 -0 -0 -0 0 0 0 0 0 0 0 0 0 0 0 -0
0 0 0 0 0 0 0 0 0 0 0 0 -0 0 0 0 0 0 0 0 0 0 0 0 0 0 0 0 -0 -0 -0 -0 -0 0 0 0 0 0 0 0 0 0 0 -0
0 0 0 0 0 0 0 0 0 0 0 -0 0 0 0 0 0 0 0 0 0 0 0 0 0 0 0 0 -0 -0 -0 -0 -0 0 0 0 0 0 0 0 0 0 0 -0
0 0 0 0 0 0 0 0 -0 0 0 -0 0 0 0 0 0 0 0 0 0 0 0 0 0 0 0 0 -0 -0 -0 0 -0 0 0 0 0 0 0 0 0 0 0 0
0 0 0 0 0 0 0 0 0 0 0 -0 0 0 0 0 0 0 0 0 0 0 0 0 0 0 0 0 -0 -0 -0 -0 -0 -0 0 0 0 0 0 0 0 0 0 0
0 0 0 0 0 0 0 0 0 0 0 0 0 0 0 0 0 0 0 0 0 0 0 0 0 0 0 -0 0 -0 0 -0 -0 -0 -0 -0 0 0 0 0 0 0 0 0
0 0 0 0 0 0 0 0 -0 -0 0 0 -0 -0 0 0 0 0 0 0 0 0 0 0 0 0 -0 0 0 -0 0 -0 -0 -0 -0 -0 0 0 0 0 0 0 0 0
Wind_Speed_500mb
9 10 10 18 24 17 19 20 15 27 15 8 3 10 16 16 21 32 43 48 53 62 70 62 72 69 58 47 27 19 33 22 5 16 19 16 9 2 4 6 7 7 2 5
19 10 5 18 27 26 28 22 19 16 19 6 1 9 13 20 26 32 38 42 50 62 67 70 73 70 60 54 41 31 22 17 9 12 9 7 3 7 8 6 5 2 6 11
8 9 14 20 6 8 4 5 6 11 7 13 6 11 11 16 23 28 33 40 49 59 62 62 65 67 62 52 41 34 30 14 6 4 3 1 4 9 7 5 6 7 12 14
6 7 7 7 15 5 4 3 5 10 5 10 17 21 9 13 20 28 36 44 52 60 62 64 66 65 63 53 41 32 23 7 3 3 5 5 6 7 10 10 10 14 11 16
6 3 14 12 10 10 10 6 10 9 13 15 24 11 18 11 23 30 38 50 60 67 69 64 59 61 65 58 49 34 21 16 8 8 6 6 4 8 10 12 15 9 14 20
4 6 8 13 20 17 9 10 13 15 15 20 26 13 12 33 45 52 55 60 62 62 60 63 64 65 68 65 55 41 28 21 18 10 10 11 9 7 10 13 10 14 19 22
8 10 8 12 23 15 11 10 16 17 19 23 19 28 42 49 51 55 49 51 59 59 61 62 67 61 64 67 64 46 34 24 17 17 17 10 7 8 10 9 13 17 19 22
4 8 6 16 10 12 9 12 15 13 17 28 40 48 51 52 54 54 55 58 62 66 64 69 65 63 65 64 66 44 32 26 22 19 10 6 4 6 9 12 13 14 21 25
7 6 3 6 9 18 21 26 18 26 40 50 52 53 57 59 58 57 56 56 59 60 71 66 58 53 57 64 62 41 29 20 15 9 10 3 4 11 5 8 15 22 23 29
7 3 13 24 25 12 29 32 39 50 49 44 45 49 52 53 51 50 51 54 56 56 58 55 47 40 49 66 56 34 18 15 12 13 8 12 3 3 8 14 21 23 26 28
19 19 32 11 25 34 35 36 39 42 43 45 49 54 52 48 48 48 50 49 38 54 62 54 40 36 53 66 37 16 12 13 17 14 8 15 8 7 12 18 25 28 30 30
10 24 16 35 39 42 40 41 43 42 45 47 48 50 50 49 46 48 47 43 47 56 58 47 28 43 53 47 19 4 6 11 9 6 7 12 12 12 19 27 29 30 31 32
13 25 33 42 41 37 38 48 48 47 48 51 48 48 46 44 47 50 43 42 45 46 34 30 32 40 49 41 16 10 8 7 14 10 12 10 9 16 20 22 24 24 30 33
9 22 24 23 40 51 54 57 52 52 52 50 52 48 47 44 46 41 37 39 40 35 30 32 38 42 42 33 13 5 8 13 6 11 15 6 10 12 11 11 17 26 30 33
23 22 32 44 48 50 51 52 54 57 56 55 51 51 48 46 43 40 37 32 37 35 36 40 42 39 34 24 9 9 7 9 7 14 10 10 10 12 12 14 21 23 30 35
45 45 44 48 51 54 56 54 57 61 58 53 51 49 47 46 45 40 37 38 39 42 43 45 44 33 25 15 3 13 5 7 16 14 12 11 12 13 15 18 19 24 32 35
36 49 57 61 58 61 64 70 71 69 69 66 62 59 46 45 45 41 40 35 43 47 50 47 34 25 17 7 15 13 12 14 12 13 13 13 15 16 16 18 21 25 31 33
36 44 46 48 58 66 72 71 71 68 65 62 62 60 59 60 60 47 38 35 39 51 47 33 21 19 17 15 12 15 18 13 12 13 15 17 17 16 17 20 21 25 30 31
46 46 49 58 58 60 62 62 67 74 78 74 67 64 55 49 47 36 30 30 27 25 18 12 16 22 23 24 18 24 16 11 13 18 18 19 19 20 22 21 22 27 28 30
54 57 57 57 55 55 60 65 80 76 75 77 72 63 49 35 29 27 24 23 17 13 8 20 33 36 34 23 27 23 16 14 19 19 19 18 21 24 23 20 24 27 27 29
56 51 58 55 58 56 63 72 69 74 61 56 53 36 27 20 18 15 15 12 10 14 26 42 45 42 36 28 27 19 14 19 19 20 19 22 23 25 22 22 25 26 25 28
52 52 59 47 56 52 62 60 61 48 47 44 36 25 18 14 8 15 15 13 20 34 43 45 44 30 30 31 25 17 19 21 19 23 25 29 28 23 24 23 23 25 23 27
48 51 42 49 46 52 50 54 44 32 35 32 34 29 21 16 22 18 19 28 42 48 54 39 33 37 36 28 21 21 24 21 27 24 27 27 26 24 25 23 22 23 22 25
46 31 40 37 44 43 45 40 31 26 25 26 26 24 27 17 20 39 57 59 59 56 56 43 41 35 25 24 24 27 25 28 26 27 31 28 27 28 26 24 21 20 19 20
20 33 34 39 37 31 31 29 27 27 25 21 23 24 23 57 65 74 71 59 47 55 51 41 34 26 25 27 28 28 28 26 27 27 28 27 28 29 28 26 22 19 17 15
29 30 28 30 23 25 23 29 40 43 42 46 59 70 77 80 77 67 64 57 46 42 45 37 26 25 30 29 29 29 27 31 32 30 28 29 28 30 30 26 22 20 17 16
31 24 22 29 34 36 39 47 58 66 67 72 77 73 70 70 66 53 51 44 42 41 37 31 27 27 30 30 30 29 29 32 30 27 28 30 31 29 29 29 22 19 19 19
Wind_Direction_500mb
266 248 249 266 276 284 251 266 268 302 290 297 327 356 3 10 25 28 27 23 19 17 16 11 14 16 14 9 345 327 4 357 337 9 25 23 31 170 134 175 154 143 194 289
282 277 259 276 278 279 277 274 261 259 274 208 270 347 359 17 19 18 14 10 10 11 12 15 11 9 12 9 0 338 322 331 328 1 18 355 99 190 196 184 204 217 278 299
271 4 316 282 39 350 138 221 276 266 321 173 258 317 344 359 1 1 2 4 4 5 2 1 5 6 0 0 2 358 331 317 276 297 326 73 166 187 191 232 288 304 310 312
295 306 257 47 323 246 210 200 270 273 269 274 291 288 290 352 345 347 346 350 354 356 352 345 345 352 357 351 349 355 4 22 294 320 307 137 178 202 244 283 299 315 325 314
284 277 314 138 43 349 352 333 9 327 324 332 338 298 244 327 337 330 331 334 336 340 340 337 341 345 349 348 340 339 345 349 340 291 234 171 211 239 267 290 310 313 311 321
159 255 271 46 346 339 279 257 31 11 1 354 347 312 320 328 324 322 317 322 325 327 327 331 336 337 339 343 337 322 319 332 308 280 244 230 239 264 293 300 303 310 322 324
222 253 267 5 326 324 255 10 336 329 330 324 316 306 301 310 311 316 318 325 327 327 323 320 323 335 333 339 335 322 303 308 281 252 245 222 237 310 315 315 313 325 332 337
183 237 251 358 349 4 325 292 290 312 327 325 313 307 307 307 309 312 314 317 322 324 322 313 312 325 327 333 328 320 290 284 254 242 190 182 307 313 310 324 336 346 353 346
246 333 176 296 352 332 312 299 290 305 308 312 308 304 304 302 301 304 309 309 314 316 317 318 317 316 321 332 329 317 284 269 234 222 132 98 349 310 340 16 9 357 347 341
287 120 321 319 312 306 316 296 296 306 305 309 310 314 315 312 310 309 312 314 317 323 323 319 328 324 325 332 323 307 266 226 219 146 148 61 258 48 22 21 3 351 346 349
278 298 320 306 308 311 307 301 302 303 302 300 303 303 305 309 315 317 320 323 324 331 332 326 328 340 335 335 328 283 227 203 141 130 123 87 172 80 23 6 360 356 2 6
293 312 289 293 308 310 304 303 307 307 301 299 300 298 298 297 302 308 312 318 318 325 330 331 349 348 344 344 356 4 197 162 129 125 94 115 92 31 9 1 6 10 13 26
278 299 293 297 312 323 313 311 309 306 303 301 301 303 304 303 300 303 297 308 310 318 332 344 345 347 346 343 336 331 268 117 114 88 68 79 40 15 5 11 22 26 31 26
2 330 312 313 310 313 312 310 308 303 300 298 297 298 298 296 296 301 296 306 305 306 320 330 338 340 338 343 310 241 134 116 82 80 113 105 40 15 42 58 43 42 35 44
329 316 299 307 310 312 311 311 311 308 307 304 301 298 296 293 291 289 292 291 296 290 305 322 330 332 330 330 295 138 175 147 115 95 103 72 35 29 55 49 49 55 50 54
324 324 323 318 317 316 314 311 307 305 304 304 303 299 296 291 288 286 288 279 281 282 296 311 321 317 312 301 64 107 127 109 115 110 84 41 41 67 65 52 60 66 54 75
323 321 324 319 316 313 309 309 308 303 301 302 304 306 297 294 288 282 285 285 263 271 283 299 306 293 262 242 131 136 132 140 109 77 44 56 71 73 65 62 72 73 66 83
317 310 310 308 305 312 311 310 310 306 302 300 298 297 291 293 285 287 282 285 271 264 276 287 277 238 204 148 142 164 147 130 89 46 64 71 73 74 71 70 80 82 83 88
328 320 315 321 326 319 315 314 314 315 310 305 298 291 288 282 271 271 276 277 268 272 279 257 205 176 141 138 161 153 147 112 63 71 73 74 72 74 70 68 92 90 92 96
326 325 321 329 327 320 320 323 325 320 315 312 301 288 281 275 255 263 266 255 259 255 221 173 159 144 139 146 159 151 126 84 78 80 83 81 74 70 63 75 101 94 97 104
326 326 330 325 325 328 332 334 332 329 337 335 311 274 247 226 227 241 224 224 200 177 162 157 150 140 139 150 157 135 104 91 87 87 85 78 72 66 70 83 103 95 99 113
328 332 331 322 332 336 341 341 342 357 9 19 51 96 142 167 157 158 165 166 162 152 154 144 137 141 144 148 141 117 102 94 90 83 80 75 67 66 74 82 103 99 102 121
337 337 327 335 342 345 346 347 354 18 28 32 44 51 76 101 129 152 150 139 134 129 125 136 136 136 138 137 123 111 100 95 87 80 80 79 68 66 69 76 95 102 103 124
345 340 338 351 352 355 355 359 9 34 52 51 60 67 74 93 110 126 116 114 117 117 109 113 124 130 131 123 120 107 100 93 89 78 79 82 72 65 63 69 83 98 110 135
346 354 3 3 7 6 12 21 46 58 72 76 78 79 89 112 115 115 116 112 121 125 122 125 127 128 126 117 107 105 99 97 90 77 70 77 71 62 60 67 75 83 91 130
8 12 19 21 27 26 44 63 71 79 88 98 105 110 111 111 111 111 113 113 109 113 119 124 122 124 111 109 108 101 97 97 86 77 69 70 76 68 59 62 74 81 71 72
23 38 61 64 70 71 82 86 94 90 95 104 104 103 106 110 112 120 123 121 123 122 118 114 114 110 109 107 100 95 101 97 90 75 67 65 69 72 64 59 65 77 77 69
Wind_Speed_850mb
9 10 10 18 24 17 19 20 15 27 15 8 3 10 16 16 21 32 43 48 53 62 70 62 72 69 58 47 27 19 33 22 5 16 19 16 9 2 4 6 7 7 2 5
19 10 5 18 27 26 28 22 19 16 19 6 1 9 13 20 26 32 38 42 50 62 67 70 73 70 60 54 41 31 22 17 9 12 9 7 3 7 8 6 5 2 6 11
8 9 14 20 6 8 4 5 6 11 7 13 6 11 11 16 23 28 33 40 49 59 62 62 65 67 62 52 41 34 30 14 6 4 3 1 4 9 7 5 6 7 12 14
6 7 7 7 15 5 4 3 5 10 5 10 17 21 9 13 20 28 36 44 52 60 62 64 66 65 63 53 41 32 23 7 3 3 5 5 6 7 10 10 10 14 11 16
6 3 14 12 10 10 10 6 10 9 13 15 24 11 18 11 23 30 38 50 60 67 69 64 59 61 65 58 49 34 21 16 8 8 6 6 4 8 10 12 15 9 14 20
4 6 8 13 20 17 9 10 13 15 15 20 26 13 12 33 45 52 55 60 62 62 60 63 64 65 68 65 55 41 28 21 18 10 10 11 9 7 10 13 10 14 19 22
8 10 8 12 23 15 11 10 16 17 19 23 19 28 42 49 51 55 49 51 59 59 61 62 67 61 64 67 64 46 34 24 17 17 17 10 7 8 10 9 13 17 19 22
4 8 6 16 10 12 9 12 15 13 17 28 40 48 51 52 54 54 55 58 62 66 64 69 65 63 65 64 66 44 32 26 22 19 10 6 4 6 9 12 13 14 21 25
7 6 3 6 9 18 21 26 18 26 40 50 52 53 57 59 58 57 56 56 59 60 71 66 58 53 57 64 62 41 29 20 15 9 10 3 4 11 5 8 15 22 23 29
7 3 13 24 25 12 29 32 39 50 49 44 45 49 52 53 51 50 51 54 56 56 58 55 47 40 49 66 56 34 18 15 12 13 8 12 3 3 8 14 21 23 26 28
19 19 32 11 25 34 35 36 39 42 43 45 49 54 52 48 48 48 50 49 38 54 62 54 40 36 53 66 37 16 12 13 17 14 8 15 8 7 12 18 25 28 30 30
10 24 16 35 39 42 40 41 43 42 45 47 48 50 50 49 46 48 47 43 47 56 58 47 28 43 53 47 19 4 6 11 9 6 7 12 12 12 19 27 29 30 31 32
13 25 33 42 41 37 38 48 48 47 48 51 48 48 46 44 47 50 43 42 45 46 34 30 32 40 49 41 16 10 8 7 14 10 12 10 9 16 20 22 24 24 30 33
9 22 24 23 40 51 54 57 52 52 52 50 52 48 47 44 46 41 37 39 40 35 30 32 38 42 42 33 13 5 8 13 6 11 15 6 10 12 11 11 17 26 30 33
23 22 32 44 48 50 51 52 54 57 56 55 51 51 48 46 43 40 37 32 37 35 36 40 42 39 34 24 9 9 7 9 7 14 10 10 10 12 12 14 21 23 30 35
45 45 44 48 51 54 56 54 57 61 58 53 51 49 47 46 45 40 37 38 39 42 43 45 44 33 25 15 3 13 5 7 16 14 12 11 12 13 15 18 19 24 32 35
36 49 57 61 58 61 64 70 71 69 69 66 62 59 46 45 45 41 40 35 43 47 50 47 34 25 17 7 15 13 12 14 12 13 13 13 15 16 16 18 21 25 31 33
36 44 46 48 58 66 72 71 71 68 65 62 62 60 59 60 60 47 38 35 39 51 47 33 21 19 17 15 12 15 18 13 12 13 15 17 17 16 17 20 21 25 30 31
46 46 49 58 58 60 62 62 67 74 78 74 67 64 55 49 47 36 30 30 27 25 18 12 16 22 23 24 18 24 16 11 13 18 18 19 19 20 22 21 22 27 28 30
54 57 57 57 55 55 60 65 80 76 75 77 72 63 49 35 29 27 24 23 17 13 8 20 33 36 34 23 27 23 16 14 19 19 19 18 21 24 23 20 24 27 27 29
56 51 58 55 58 56 63 72 69 74 61 56 53 36 27 20 18 15 15 12 10 14 26 42 45 42 36 28 27 19 14 19 19 20 19 22 23 25 22 22 25 26 25 28
52 52 59 47 56 52 62 60 61 48 47 44 36 25 18 14 8 15 15 13 20 34 43 45 44 30 30 31 25 17 19 21 19 23 25 29 28 23 24 23 23 25 23 27
48 51 42 49 46 52 50 54 44 32 35 32 34 29 21 16 22 18 19 28 42 48 54 39 33 37 36 28 21 21 24 21 27 24 27 27 26 24 25 23 22 23 22 25
46 31 40 37 44 43 45 40 31 26 25 26 26 24 27 17 20 39 57 59 59 56 56 43 41 35 25 24 24 27 25 28 26 27 31 28 27 28 26 24 21 20 19 20
20 33 34 39 37 31 31 29 27 27 25 21 23 24 23 57 65 74 71 59 47 55 51 41 34 26 25 27 28 28 28 26 27 27 28 27 28 29 28 26 22 19 17 15
29 30 28 30 23 25 23 29 40 43 42 46 59 70 77 80 77 67 64 57 46 42 45 37 26 25 30 29 29 29 27 31 32 30 28 29 28 30 30 26 22 20 17 16
31 24 22 29 34 36 39 47 58 66 67 72 77 73 70 70 66 53 51 44 42 41 37 31 27 27 30 30 30 29 29 32 30 27 28 30 31 29 29 29 22 19 19 19
Wind_Direction_850mb
266 248 249 266 276 284 251 266 268 302 290 297 327 356 3 10 25 28 27 23 19 17 16 11 14 16 14 9 345 327 4 357 337 9 25 23 31 170 134 175 154 143 194 289
282 277 259 276 278 279 277 274 261 259 274 208 270 347 359 17 19 18 14 10 10 11 12 15 11 9 12 9 0 338 322 331 328 1 18 355 99 190 196 184 204 217 278 299
271 4 316 282 39 350 138 221 276 266 321 173 258 317 344 359 1 1 2 4 4 5 2 1 5 6 0 0 2 358 331 317 276 297 326 73 166 187 191 232 288 304 310 312
295 306 257 47 323 246 210 200 270 273 269 274 291 288 290 352 345 347 346 350 354 356 352 345 345 352 357 351 349 355 4 22 294 320 307 137 178 202 244 283 299 315 325 314
284 277 314 138 43 349 352 333 9 327 324 332 338 298 244 327 337 330 331 334 336 340 340 337 341 345 349 348 340 339 345 349 340 291 234 171 211 239 267 290 310 313 311 321
159 255 271 46 346 339 279 257 31 11 1 354 347 312 320 328 324 322 317 322 325 327 327 331 336 337 339 343 337 322 319 332 308 280 244 230 239 264 293 300 303 310 322 324
222 253 267 5 326 324 255 10 336 329 330 324 316 306 301 310 311 316 318 325 327 327 323 320 323 335 333 339 335 322 303 308 281 252 245 222 237 310 315 315 313 325 332 337
183 237 251 358 349 4 325 292 290 312 327 325 313 307 307 307 309 312 314 317 322 324 322 313 312 325 327 333 328 320 290 284 254 242 190 182 307 313 310 324 336 346 353 346
246 333 176 296 352 332 312 299 290 305 308 312 308 304 304 302 301 304 309 309 314 316 317 318 317 316 321 332 329 317 284 269 234 222 132 98 349 310 340 16 9 357 347 341
287 120 321 319 312 306 316 296 296 306 305 309 310 314 315 312 310 309 312 314 317 323 323 319 328 324 325 332 323 307 266 226 219 146 148 61 258 48 22 21 3 351 346 349
278 298 320 306 308 311 307 301 302 303 302 300 303 303 305 309 315 317 320 323 324 331 332 326 328 340 335 335 328 283 227 203 141 130 123 87 172 80 23 6 360 356 2 6
293 312 289 293 308 310 304 303 307 307 301 299 300 298 298 297 302 308 312 318 318 325 330 331 349 348 344 344 356 4 197 162 129 125 94 115 92 31 9 1 6 10 13 26
278 299 293 297 312 323 313 311 309 306 303 301 301 303 304 303 300 303 297 308 310 318 332 344 345 347 346 343 336 331 268 117 114 88 68 79 40 15 5 11 22 26 31 26
2 330 312 313 310 313 312 310 308 303 300 298 297 298 298 296 296 301 296 306 305 306 320 330 338 340 338 343 310 241 134 116 82 80 113 105 40 15 42 58 43 42 35 44
329 316 299 307 310 312 311 311 311 308 307 304 301 298 296 293 291 289 292 291 296 290 305 322 330 332 330 330 295 138 175 147 115 95 103 72 35 29 55 49 49 55 50 54
324 324 323 318 317 316 314 311 307 305 304 304 303 299 296 291 288 286 288 279 281 282 296 311 321 317 312 301 64 107 127 109 115 110 84 41 41 67 65 52 60 66 54 75
323 321 324 319 316 313 309 309 308 303 301 302 304 306 297 294 288 282 285 285 263 271 283 299 306 293 262 242 131 136 132 140 109 77 44 56 71 73 65 62 72 73 66 83
317 310 310 308 305 312 311 310 310 306 302 300 298 297 291 293 285 287 282 285 271 264 276 287 277 238 204 148 142 164 147 130 89 46 64 71 73 74 71 70 80 82 83 88
328 320 315 321 326 319 315 314 314 315 310 305 298 291 288 282 271 271 276 277 268 272 279 257 205 176 141 138 161 153 147 112 63 71 73 74 72 74 70 68 92 90 92 96
326 325 321 329 327 320 320 323 325 320 315 312 301 288 281 275 255 263 266 255 259 255 221 173 159 144 139 146 159 151 126 84 78 80 83 81 74 70 63 75 101 94 97 104
326 326 330 325 325 328 332 334 332 329 337 335 311 274 247 226 227 241 224 224 200 177 162 157 150 140 139 150 157 135 104 91 87 87 85 78 72 66 70 83 103 95 99 113
328 332 331 322 332 336 341 341 342 357 9 19 51 96 142 167 157 158 165 166 162 152 154 144 137 141 144 148 141 117 102 94 90 83 80 75 67 66 74 82 103 99 102 121
337 337 327 335 342 345 346 347 354 18 28 32 44 51 76 101 129 152 150 139 134 129 125 136 136 136 138 137 123 111 100 95 87 80 80 79 68 66 69 76 95 102 103 124
345 340 338 351 352 355 355 359 9 34 52 51 60 67 74 93 110 126 116 114 117 117 109 113 124 130 131 123 120 107 100 93 89 78 79 82 72 65 63 69 83 98 110 135
346 354 3 3 7 6 12 21 46 58 72 76 78 79 89 112 115 115 116 112 121 125 122 125 127 128 126 117 107 105 99 97 90 77 70 77 71 62 60 67 75 83 91 130
8 12 19 21 27 26 44 63 71 79 88 98 105 110 111 111 111 111 113 113 109 113 119 124 122 124 111 109 108 101 97 97 86 77 69 70 76 68 59 62 74 81 71 72
23 38 61 64 70 71 82 86 94 90 95 104 104 103 106 110 112 120 123 121 123 122 118 114 114 110 109 107 100 95 101 97 90 75 67 65 69 72 64 59 65 77 77 69